User: anonymous   Login
Location: Unspecified
(0.0000°N, 0.0000°E)
Time: 11:48:31
(UTC+00:00)
Language:

EXALTA-1 - Orbit

View from above orbital plane
View from above orbital plane
View from above satellite
View from above satellite

Ground track
Ground track

The orbit data is extracted from the following two-line orbital elements,

1 42734U 98067MP  18169.06280386  .00034885  00000-0  22815-3 0  9997
2 42734  51.6310 347.4851 0006028 215.3955 144.6645 15.75447909 60542
Epoch (UTC): 18 June 2018 01:30:26
Eccentricity: 0.0006028
inclination: 51.6310°
perigee height: 339 km
apogee height: 347 km
right ascension of ascending node: 347.4851°
argument of perigee: 215.3955°
revolutions per day: 15.75447909
mean anomaly at epoch: 144.6645°
orbit number at epoch: 6054

The dashed part of the orbit path shows where the satellite is in the earth's shadow,  

DLR